Showing default

PICO-02H028, 60570

Orbit data source: Space-Track

PICO-02H028, 60570 is a payload satellite owned by Apogeo Space (IT) in SSO that was launched on Fri, 16 Aug 2024 UTC via an FALCON 9 launch vehicle from the Air Force Western Test Range (AFWTR). Payload-class satellites include a variety of spacecraft equipped with specific instruments for various scientific and technological missions. These include communications satellites like Starlink; space stations such as the ISS; scientific satellites like the Hubble; Earth observation satellites from companies like Planet Labs, Umbra, and HawkEye 360; GPS; miniature CubeSats for education and research; and military/defense satellites.

Loading next visibility...
Identifier
60570, 2024-149DG
Orbit
SSO
Country
Flag of ITIT
Related business
Manufacturer
Apogeo Space
Mission
Operational Commercial Communications
Bus & Motor
CUBESAT 0.3U, Unknown motor
Mass
0.5 kg wet, 0.5 kg dry
Launch date (UTC)
2024-08-16 (1 year ago)
Launch vehicle
FALCON 9
Launch site
Air Force Western Test Range (AFWTR)
Object type
Payload
Rocket body
Debris
Shape & HBR
Box, 0.1 m
Radar Cross Section
0.008 m², Small (<0.1 m²)

Expand to show TLE details & history
Last TLE update: 8 hours ago

TLE from 8 hours ago
0 PICO-02H028
1 60570U 24149DG  25303.69264054  .00119749  00000-0  34927-2 0  9995
2 60570  97.6969  29.1647 0002621 246.6552 113.4415 15.34866758 66415
Epoch: 2025-10-30T16:37Z
TLE epoch observation values (Epoch: 2025-10-30T16:37:24.142Z)
Latitude
-0.00001°
Longitude
100.56634°
Altitude
465.132 km
Speed
7.633 km/s
True Right ascension
01h 56m 39s
True Declination
0° 00' 00"
Sunlit
Object was in full shadow at epoch
Visualization orbit readout
Latitude
Unknown
Longitude
Unknown
Altitude
Unknown
Speed
Unknown
Apparent Right ascension
Unknown
Apparent Declination
Unknown
Sunlit
N/A
Visualization observer readout
Local Sidereal Time
19:50:28
Azimuth
Unknown
Elevation
Unknown
Doppler factor
Unknown
Orbital elements
Apogee altitude
460.067 km
Perigee altitude
456.483 km
Semi-major axis
6,836.412 km
Eccentricity
0.00026
Inclination
97.6969°
RAAN
29.1647°
Arg. of periapsis
246.6552°
True anomaly
113.46905°
Mean anomaly
113.4415°
Eccentric anomaly
113.45528°
Mean motion
3.83973 °/min
Orbital period
93.76 mins
BSTAR
0.0034927
Loading maneuver chart data...
Computing Atmospheric mass density...
Loading historical data...
Loading historical data...
Loading historical data...
Loading historical data...
Loading historical data...
Loading historical data...
Loading historical data...

Documentation

Showing up to 5 results
|